This is the latest recevied weather packets stored in our database for station/object AA7VG. If no packets are shown the sender has not sent any weather packets the latest 10 day(s).
| Time | Temp. | Humidity | Pressure | Rain* | Wind** | Luminosity | Snow |
|---|---|---|---|---|---|---|---|
| 1788527752 | 13.33° C | 52% | 1006.8 hPa | 0 mm | - | - | - |
| 1788527417 | 13.33° C | 53% | 1006.8 hPa | 0 mm | - | - | - |
| 1788527117 | 12.78° C | 56% | 1006.6 hPa | 0 mm | - | - | - |
| 1788526811 | 12.78° C | 58% | 1006.8 hPa | 0 mm | - | - | - |
| 1788526508 | 12.78° C | 59% | 1006.5 hPa | 0 mm | - | - | - |
| 1788526202 | 12.22° C | 60% | 1006.8 hPa | 0 mm | - | - | - |
| 1788525898 | 12.22° C | 60% | 1006.6 hPa | 0 mm | - | - | - |
| 1788525594 | 11.67° C | 60% | 1006.6 hPa | 0 mm | - | - | - |
| 1788525294 | 11.67° C | 60% | 1006.5 hPa | 0 mm | - | - | - |
| 1788524998 | 11.67° C | 60% | 1006.3 hPa | 0 mm | - | - | - |
| 1788524689 | 11.67° C | 59% | 1006.3 hPa | 0 mm | - | - | - |
| 1788524384 | 12.22° C | 58% | 1006.2 hPa | 0 mm | - | - | - |
| 1788524080 | 12.78° C | 57% | 1006.3 hPa | 0 mm | - | - | - |
| 1788523776 | 12.78° C | 56% | 1006.3 hPa | 0 mm | - | - | - |
| 1788523472 | 12.78° C | 55% | 1006.1 hPa | 0 mm | - | - | - |
| 1788523167 | 12.78° C | 53% | 1006.3 hPa | 0 mm | - | - | - |
| 1788522862 | 13.33° C | 53% | 1006.3 hPa | 0 mm | - | - | - |
| 1788522562 | 13.33° C | 52% | 1006.1 hPa | 0 mm | - | - | - |
| 1788522256 | 13.33° C | 51% | 1006.2 hPa | 0 mm | - | - | - |
| 1788521952 | 13.89° C | 50% | 1006.3 hPa | 0 mm | - | - | - |
| 1788521652 | 13.89° C | 50% | 1006.1 hPa | 0 mm | - | - | - |
| 1788521351 | 14.44° C | 48% | 1006.1 hPa | 0 mm | - | - | - |
| 1788521047 | 14.44° C | 47% | 1006.1 hPa | 0 mm | - | - | - |
| 1788520770 | 14.44° C | 47% | 1005.7 hPa | 0 mm | - | - | - |
| 1788520438 | 14.44° C | 46% | 1005.4 hPa | 0 mm | - | - | - |
* Rain latest hour (hover to see other rain measurements)
** Current wind speed in m/s (hover to see current wind gust speed)